User: anonymous   Login
Location: Vihti�l�
(61.3833°N, 23.0667°E)
Time: 00:26:15
(UTC+00:00)
Language:

CZ-2C R/B - Orbit

View from above orbital plane
View from above orbital plane
View from above satellite
View from above satellite

Ground track
Ground track

The orbit data is extracted from the following two-line orbital elements,

1 36089U 09061B   21061.20119737 -.00000018  00000-0  72422-5 0  9994
2 36089  98.1906  33.0307 0081479 200.4134 170.4124 14.49848779597898
Epoch (UTC): 02 March 2021 04:49:43
Eccentricity: 0.0081479
inclination: 98.1906°
perigee height: 668 km
apogee height: 784 km
right ascension of ascending node: 33.0307°
argument of perigee: 200.4134°
revolutions per day: 14.49848779
mean anomaly at epoch: 170.4124°
orbit number at epoch: 59789

The dashed part of the orbit path shows where the satellite is in the earth's shadow,  

DLR